M I D A S
Marine Information and Data Acquisition System
Tripno 1715 of the Zeeleeuw from 2009-06-24 06:47:07 to 2009-06-24 15:11:18
Back to CruiseResearch ActivitiesStationsMapUnderway DataData graphs

EquipmentUnitsComments
TimeDGPSUTC
LatitudeDGPSDM.mWGS84
LongitudeDGPSDM.mWGS84
SpeedMeteo Stationm/sRelative wind speed
DirectionMeteo StationdegRelative wind direction
TemperatureMeteo Stationdeg CelciusAir temperature
PressureMeteo StationPaAtmospheric pressure
HumidityMeteo Station%Relative humidity
Missing or incorrect values are displayed as -999
Metereological data collected by the RV Zeeleeuw from 2009-06-24 06:44:21 to 2009-06-24 15:18:51
Time Latitude Longitude Speed Direction Temperature Pressure Humidity
2009-06-24 06:45 51°13.682 2°55.9 2.3 240 17.2 102270 64
2009-06-24 06:46 51°13.694 2°55.807 0.7 348 17.2 102270 65
2009-06-24 06:47 51°13.694 2°55.742 2.9 315 17.3 102270 65
2009-06-24 06:48 51°13.729 2°55.746 3.3 340 17.2 102270 63
2009-06-24 06:49 51°13.775 2°55.691 3.5 20 17.1 102260 66
2009-06-24 06:50 51°13.839 2°55.637 2.9 351 17 102270 66
2009-06-24 06:51 51°13.899 2°55.658 5.1 8 16.9 102270 66
2009-06-24 06:52 51°13.937 2°55.662 4.6 10 16.8 102270 67
2009-06-24 06:53 51°13.956 2°55.649 3.3 22 16.8 102270 67
2009-06-24 06:54 51°13.967 2°55.637 4.3 31 16.8 102270 66
2009-06-24 06:55 51°13.961 2°55.638 4.5 20 16.8 102270 67
2009-06-24 06:56 51°13.955 2°55.638 2.9 21 16.9 102270 67
2009-06-24 06:57 51°13.951 2°55.639 2.8 24 16.9 102270 66
2009-06-24 06:58 51°13.949 2°55.64 4.5 26 17 102260 66
2009-06-24 06:59 51°13.951 2°55.635 4.6 33 17 102260 66
2009-06-24 07:00 51°13.963 2°55.622 2.8 22 17 102260 66
2009-06-24 07:01 51°14.007 2°55.569 2.1 5 17 102270 66
2009-06-24 07:02 51°14.102 2°55.453 4.8 355 17 102260 66
2009-06-24 07:03 51°14.202 2°55.335 5.6 8 17 102260 67
2009-06-24 07:04 51°14.277 2°55.224 4.8 18 16.9 102260 66
2009-06-24 07:05 51°14.375 2°55.025 5.3 1 16.9 102270 66
2009-06-24 07:06 51°14.511 2°54.815 8.7 356 16.8 102250 69
2009-06-24 07:07 51°14.658 2°54.622 9.8 354 16.7 102250 70
2009-06-24 07:08 51°14.805 2°54.438 7.7 4 16.5 102240 73
2009-06-24 07:09 51°14.928 2°54.206 7.9 5 16.4 102250 75
2009-06-24 07:10 51°15.061 2°54.002 10.6 358 16.4 102240 74
2009-06-24 07:11 51°15.217 2°53.854 12 356 16.3 102240 74
2009-06-24 07:12 51°15.377 2°53.714 10.2 353 16.2 102230 73
2009-06-24 07:13 51°15.531 2°53.55 10.4 359 16.2 102240 74
2009-06-24 07:14 51°15.683 2°53.369 10.7 355 16.1 102230 75
2009-06-24 07:15 51°15.835 2°53.189 11.1 354 16.1 102230 76
2009-06-24 07:16 51°15.992 2°53.024 10.1 356 16 102230 75
2009-06-24 07:17 51°16.152 2°52.872 10.3 354 15.9 102230 75
2009-06-24 07:18 51°16.311 2°52.715 11.4 355 15.9 102230 75
2009-06-24 07:19 51°16.468 2°52.552 11.2 358 15.9 102240 77
2009-06-24 07:20 51°16.629 2°52.407 10.9 358 15.9 102230 75
2009-06-24 07:21 51°16.796 2°52.299 13.5 354 16 102230 76
2009-06-24 07:22 51°16.965 2°52.216 12.8 351 15.9 102220 75
2009-06-24 07:23 51°17.136 2°52.159 12.7 355 15.9 102220 75
2009-06-24 07:24 51°17.308 2°52.103 11.3 350 16 102220 76
2009-06-24 07:25 51°17.474 2°52.03 11.3 359 16 102230 76
2009-06-24 07:26 51°17.606 2°51.83 9.3 8 16 102230 75
2009-06-24 07:27 51°17.718 2°51.587 7.9 6 16 102250 76
2009-06-24 07:28 51°17.811 2°51.315 9.7 11 16.1 102240 75
2009-06-24 07:29 51°17.897 2°51.033 7 10 16 102250 74
2009-06-24 07:30 51°17.984 2°50.747 9.1 10 16.1 102250 75
2009-06-24 07:31 51°18.07 2°50.459 8.7 8 16.1 102250 75
2009-06-24 07:32 51°18.161 2°50.171 7.5 8 16.1 102240 76
2009-06-24 07:33 51°18.246 2°49.879 7.1 8 16.1 102250 74
2009-06-24 07:34 51°18.334 2°49.592 8.5 8 16.1 102240 75
2009-06-24 07:35 51°18.422 2°49.308 8.8 9 16.1 102260 75
2009-06-24 07:36 51°18.514 2°49.024 7.2 8 16.1 102240 74
2009-06-24 07:37 51°18.605 2°48.738 7.7 9 16.2 102260 74
2009-06-24 07:38 51°18.698 2°48.45 6.2 8 16.2 102240 76
2009-06-24 07:39 51°18.804 2°48.183 9.1 359 16.2 102240 75
2009-06-24 07:40 51°18.949 2°47.993 9.6 357 16.2 102230 76
2009-06-24 07:41 51°19.1 2°47.81 10 356 16.2 102230 75
2009-06-24 07:42 51°19.247 2°47.622 11 356 16.2 102240 75
2009-06-24 07:43 51°19.401 2°47.44 11.7 357 16.2 102220 78
2009-06-24 07:44 51°19.554 2°47.26 10.1 356 16.1 102240 79
2009-06-24 07:45 51°19.705 2°47.075 10.4 357 16.1 102220 77
2009-06-24 07:46 51°19.866 2°46.999 11.4 341 16 102220 77
2009-06-24 07:47 51°20.012 2°47.092 13.4 338 16.1 102230 78
2009-06-24 07:48 51°20.152 2°47.207 13.9 337 16.2 102230 77
2009-06-24 07:49 51°20.302 2°47.301 13.3 338 16.3 102220 76
2009-06-24 07:50 51°20.461 2°47.368 11.7 337 16.3 102220 77
2009-06-24 07:51 51°20.619 2°47.428 11.8 340 16.3 102210 76
2009-06-24 07:52 51°20.786 2°47.443 12.5 345 16.3 102210 76
2009-06-24 07:53 51°20.96 2°47.387 12.5 348 16.2 102220 77
2009-06-24 07:54 51°21.131 2°47.284 10.8 350 16.1 102220 77
2009-06-24 07:55 51°21.3 2°47.163 11 352 16.1 102210 78
2009-06-24 07:56 51°21.46 2°46.999 10.8 356 16.1 102220 78
2009-06-24 07:57 51°21.604 2°46.782 9.5 358 16.1 102220 78
2009-06-24 07:58 51°21.741 2°46.556 8.7 1 16 102230 78
2009-06-24 07:59 51°21.872 2°46.316 9.7 359 16 102230 80
2009-06-24 08:00 51°22.009 2°46.087 10.2 358 16 102220 80
2009-06-24 08:01 51°22.141 2°45.869 10.3 2 16 102230 80
2009-06-24 08:02 51°22.272 2°45.65 10.6 2 16 102220 80
2009-06-24 08:03 51°22.404 2°45.431 9.9 1 16 102220 80
2009-06-24 08:04 51°22.534 2°45.21 11.1 -999 16 102230 79
2009-06-24 08:05 51°22.661 2°44.99 9.7 2 16 102230 79
2009-06-24 08:06 51°22.794 2°44.772 10 1 16 102210 79
2009-06-24 08:07 51°22.929 2°44.545 10.3 2 16 102210 79
2009-06-24 08:08 51°23.064 2°44.316 9.9 355 16.1 102210 79
2009-06-24 08:09 51°23.197 2°44.087 10.9 1 16 102220 79
2009-06-24 08:10 51°23.331 2°43.857 10.1 3 16.1 102210 81
2009-06-24 08:11 51°23.466 2°43.625 10.7 358 16 102210 81
2009-06-24 08:12 51°23.603 2°43.399 9.3 1 16 102230 81
2009-06-24 08:13 51°23.75 2°43.203 12 350 16 102220 80
2009-06-24 08:14 51°23.909 2°43.068 12.2 354 16 102200 81
2009-06-24 08:15 51°24.075 2°42.942 13.6 350 16 102210 82
2009-06-24 08:16 51°24.238 2°42.813 12.8 353 16 102210 82
2009-06-24 08:17 51°24.398 2°42.682 12.9 353 15.9 102210 81
2009-06-24 08:18 51°24.555 2°42.547 13.3 353 16 102190 82
2009-06-24 08:19 51°24.711 2°42.417 12.3 354 15.9 102220 81
2009-06-24 08:20 51°24.868 2°42.28 12 354 15.9 102200 81
2009-06-24 08:21 51°25.024 2°42.141 12.5 354 16 102220 83
2009-06-24 08:22 51°25.181 2°42.003 13.5 354 15.9 102210 83
2009-06-24 08:23 51°25.338 2°41.869 13.6 354 15.9 102200 82
2009-06-24 08:24 51°25.497 2°41.733 10.7 355 15.8 102220 83
2009-06-24 08:25 51°25.654 2°41.601 10 352 15.8 102210 83
2009-06-24 08:26 51°25.811 2°41.471 12.2 353 15.8 102210 84
2009-06-24 08:27 51°25.966 2°41.332 11.3 353 15.8 102210 84
2009-06-24 08:28 51°26.123 2°41.196 13 352 15.8 102220 83
2009-06-24 08:29 51°26.282 2°41.062 13.5 353 15.8 102200 84
2009-06-24 08:30 51°26.442 2°40.92 13.3 350 15.8 102220 84
2009-06-24 08:31 51°26.599 2°40.782 13 352 15.8 102220 83
2009-06-24 08:32 51°26.758 2°40.642 11.4 351 15.8 102220 84
2009-06-24 08:33 51°26.911 2°40.506 11.5 352 15.8 102220 84
2009-06-24 08:34 51°27.071 2°40.371 13.5 354 15.8 102210 83
2009-06-24 08:35 51°27.23 2°40.234 11.5 353 15.8 102210 84
2009-06-24 08:36 51°27.388 2°40.108 12.3 356 15.8 102200 85
2009-06-24 08:37 51°27.543 2°39.984 14.1 356 15.7 102220 84
2009-06-24 08:38 51°27.694 2°39.865 13.4 351 15.8 102220 85
2009-06-24 08:39 51°27.843 2°39.744 12.1 351 15.7 102200 84
2009-06-24 08:40 51°27.991 2°39.618 12 353 15.7 102220 85
2009-06-24 08:41 51°28.143 2°39.492 12 354 15.7 102210 85
2009-06-24 08:42 51°28.299 2°39.427 13.1 345 15.7 102220 86
2009-06-24 08:43 51°28.455 2°39.455 13.3 342 15.7 102210 86
2009-06-24 08:44 51°28.596 2°39.547 15.2 337 15.7 102220 86
2009-06-24 08:45 51°28.689 2°39.733 12.2 330 15.8 102210 85
2009-06-24 08:46 51°28.75 2°39.956 13.5 328 15.9 102210 85
2009-06-24 08:47 51°28.826 2°40.172 13.6 331 15.9 102230 85
2009-06-24 08:48 51°28.904 2°40.391 14.1 331 15.9 102200 85
2009-06-24 08:49 51°28.984 2°40.608 13.7 332 15.9 102220 85
2009-06-24 08:50 51°29.063 2°40.822 14.2 329 16 102210 84
2009-06-24 08:51 51°29.141 2°41.038 13.7 330 16 102190 85
2009-06-24 08:52 51°29.219 2°41.249 13.3 329 16 102210 84
2009-06-24 08:53 51°29.296 2°41.457 13.6 329 16 102240 85
2009-06-24 08:54 51°29.374 2°41.664 14.8 329 16 102210 85
2009-06-24 08:55 51°29.449 2°41.876 16.4 328 16 102200 85
2009-06-24 08:56 51°29.52 2°42.084 14.4 329 16 102210 85
2009-06-24 08:57 51°29.596 2°42.293 16.6 328 16 102190 85
2009-06-24 08:58 51°29.669 2°42.503 13.2 328 16 102190 85
2009-06-24 08:59 51°29.744 2°42.712 15.6 330 16 102210 84
2009-06-24 09:00 51°29.819 2°42.926 13 331 16 102210 84
2009-06-24 09:01 51°29.893 2°43.134 14.6 330 15.9 102210 84
2009-06-24 09:02 51°29.966 2°43.341 15.2 330 15.9 102190 85
2009-06-24 09:03 51°30.038 2°43.544 14.6 329 15.9 102200 84
2009-06-24 09:04 51°30.111 2°43.747 13.4 331 16 102200 84
2009-06-24 09:05 51°30.184 2°43.948 12.2 329 16 102200 85
2009-06-24 09:06 51°30.261 2°44.152 13.6 329 16 102210 85
2009-06-24 09:07 51°30.332 2°44.356 11.9 329 16.1 102200 85
2009-06-24 09:08 51°30.401 2°44.555 13.3 331 16 102190 85
2009-06-24 09:09 51°30.474 2°44.753 13.4 330 16 102190 84
2009-06-24 09:10 51°30.547 2°44.959 13.3 330 16 102200 85
2009-06-24 09:11 51°30.622 2°45.168 15.7 330 16.1 102200 85
2009-06-24 09:12 51°30.698 2°45.376 14.4 328 16 102210 85
2009-06-24 09:13 51°30.77 2°45.582 14.3 329 16 102190 85
2009-06-24 09:14 51°30.846 2°45.79 15.9 326 16 102190 86
2009-06-24 09:15 51°30.92 2°45.993 14.7 330 16 102200 86
2009-06-24 09:16 51°30.992 2°46.197 13.8 326 16 102190 85
2009-06-24 09:17 51°31.065 2°46.404 15.2 328 16 102180 86
2009-06-24 09:18 51°31.139 2°46.603 13 328 16 102200 86
2009-06-24 09:19 51°31.213 2°46.807 15.3 327 16 102180 85
2009-06-24 09:20 51°31.288 2°47.013 12.8 328 16 102190 85
2009-06-24 09:21 51°31.362 2°47.22 15.7 329 16 102170 85
2009-06-24 09:22 51°31.435 2°47.427 15.1 327 16 102200 85
2009-06-24 09:23 51°31.507 2°47.64 14.3 327 16 102180 85
2009-06-24 09:24 51°31.58 2°47.851 14.3 328 16 102200 85
2009-06-24 09:25 51°31.653 2°48.058 15.9 327 16 102180 86
2009-06-24 09:26 51°31.726 2°48.271 15.7 327 15.9 102190 86
2009-06-24 09:27 51°31.797 2°48.482 14.4 326 16 102200 86
2009-06-24 09:28 51°31.87 2°48.692 13.6 326 16 102200 85
2009-06-24 09:29 51°31.941 2°48.898 12.8 327 16 102190 86
2009-06-24 09:30 51°32.016 2°49.107 14.4 329 15.9 102210 85
2009-06-24 09:31 51°32.092 2°49.316 12.2 327 16 102200 86
2009-06-24 09:32 51°32.163 2°49.527 14.9 327 16 102200 85
2009-06-24 09:33 51°32.234 2°49.733 13 328 16 102180 85
2009-06-24 09:34 51°32.307 2°49.938 14.1 328 16 102200 86
2009-06-24 09:35 51°32.379 2°50.147 16.3 328 16 102190 85
2009-06-24 09:36 51°32.451 2°50.358 15.3 328 16 102190 85
2009-06-24 09:37 51°32.522 2°50.564 16.5 325 16 102170 85
2009-06-24 09:38 51°32.594 2°50.772 15.5 327 15.9 102200 86
2009-06-24 09:39 51°32.667 2°50.987 16.1 326 15.9 102190 86
2009-06-24 09:40 51°32.737 2°51.194 15 327 15.9 102170 86
2009-06-24 09:41 51°32.808 2°51.404 15.5 327 15.9 102180 86
2009-06-24 09:42 51°32.881 2°51.617 15.5 325 15.9 102190 86
2009-06-24 09:43 51°32.956 2°51.83 12.7 325 15.9 102190 87
2009-06-24 09:44 51°33.029 2°52.044 16.6 324 16 102180 86
2009-06-24 09:45 51°33.104 2°52.258 16.5 325 16 102180 86
2009-06-24 09:46 51°33.18 2°52.471 14.2 327 16 102180 86
2009-06-24 09:47 51°33.255 2°52.685 13.3 325 16 102170 86
2009-06-24 09:48 51°33.332 2°52.902 16.4 327 16 102180 86
2009-06-24 09:49 51°33.406 2°53.116 13.9 325 15.9 102170 86
2009-06-24 09:50 51°33.481 2°53.328 15.5 326 16 102180 86
2009-06-24 09:51 51°33.555 2°53.538 16.6 323 16 102180 86
2009-06-24 09:52 51°33.629 2°53.749 16.6 324 15.9 102170 86
2009-06-24 09:53 51°33.702 2°53.961 14 324 15.9 102170 85
2009-06-24 09:54 51°33.781 2°54.174 13.6 326 16 102170 86
2009-06-24 09:55 51°33.857 2°54.387 16.4 325 16 102180 86
2009-06-24 09:56 51°33.935 2°54.605 13.8 324 16 102170 87
2009-06-24 09:57 51°34.011 2°54.817 14 323 16 102180 87
2009-06-24 09:58 51°34.089 2°55.037 13.7 325 16 102160 87
2009-06-24 09:59 51°34.162 2°55.251 14.5 323 16 102160 87
2009-06-24 10:00 51°34.236 2°55.468 14.2 324 15.9 102160 87
2009-06-24 10:01 51°34.31 2°55.683 15.4 325 15.9 102160 87
2009-06-24 10:02 51°34.381 2°55.905 14.7 325 15.9 102170 87
2009-06-24 10:03 51°34.445 2°56.134 14.9 323 15.9 102170 87
2009-06-24 10:04 51°34.507 2°56.365 14.9 324 16 102130 88
2009-06-24 10:05 51°34.567 2°56.592 13.9 322 15.9 102170 87
2009-06-24 10:06 51°34.618 2°56.829 17.8 321 15.9 102150 87
2009-06-24 10:07 51°34.667 2°57.072 14 322 15.9 102150 87
2009-06-24 10:08 51°34.713 2°57.304 14.8 320 15.9 102160 87
2009-06-24 10:09 51°34.749 2°57.548 16.5 320 15.9 102140 87
2009-06-24 10:10 51°34.785 2°57.796 15.3 320 15.9 102150 87
2009-06-24 10:11 51°34.815 2°58.047 15.5 320 15.9 102130 87
2009-06-24 10:12 51°34.838 2°58.299 15.1 34 15.9 102140 87
2009-06-24 10:13 51°34.835 2°58.562 15.4 36 15.9 102150 87
2009-06-24 10:14 51°34.8 2°58.829 13.9 36 15.9 102140 86
2009-06-24 10:15 51°34.738 2°59.094 12.9 236 15.9 102140 87
2009-06-24 10:16 51°34.621 2°59.328 12.9 243 15.9 102140 87
2009-06-24 10:17 51°34.445 2°59.477 9.8 254 15.9 102170 86
2009-06-24 10:18 51°34.236 2°59.476 5.2 270 15.9 102190 87
2009-06-24 10:19 51°34.032 2°59.364 4.2 32 15.9 102190 86
2009-06-24 10:20 51°33.838 2°59.208 4.1 32 15.9 102190 86
2009-06-24 10:21 51°33.648 2°59.043 2.3 38 15.9 102200 87
2009-06-24 10:22 51°33.452 2°58.893 3.5 34 16 102190 87
2009-06-24 10:23 51°33.253 2°58.756 5.7 38 16 102190 87
2009-06-24 10:24 51°33.054 2°58.617 3.7 34 16 102190 86
2009-06-24 10:25 51°32.855 2°58.479 4.6 28 16 102190 86
2009-06-24 10:26 51°32.655 2°58.34 5.9 33 16 102190 87
2009-06-24 10:27 51°32.457 2°58.209 5.3 31 16 102190 87
2009-06-24 10:28 51°32.258 2°58.078 4.9 34 16 102170 87
2009-06-24 10:29 51°32.075 2°57.904 4.1 33 16 102180 87
2009-06-24 10:30 51°31.92 2°57.682 2.3 39 16.1 102180 88
2009-06-24 10:31 51°31.752 2°57.483 4 33 16.2 102170 86
2009-06-24 10:32 51°31.585 2°57.283 2.3 32 16.3 102180 87
2009-06-24 10:33 51°31.42 2°57.077 2.5 37 16.5 102170 86
2009-06-24 10:34 51°31.262 2°56.859 4.5 39 16.6 102170 85
2009-06-24 10:35 51°31.172 2°56.568 5.6 20 16.5 102180 85
2009-06-24 10:36 51°31.138 2°56.248 8.7 26 16.4 102170 85
2009-06-24 10:37 51°31.11 2°55.927 8.7 17 16.2 102160 85
2009-06-24 10:38 51°31.08 2°55.614 7.8 22 16.1 102170 86
2009-06-24 10:39 51°31.053 2°55.298 7.8 24 16 102170 86
2009-06-24 10:40 51°31.023 2°54.985 8.6 23 15.9 102170 86
2009-06-24 10:41 51°30.996 2°54.67 9.1 17 15.9 102160 86
2009-06-24 10:42 51°30.968 2°54.356 6.8 22 15.9 102160 86
2009-06-24 10:43 51°30.939 2°54.042 7 22 15.9 102170 86
2009-06-24 10:44 51°30.913 2°53.726 7.4 24 15.9 102160 86
2009-06-24 10:45 51°30.887 2°53.411 6.6 22 15.9 102160 87
2009-06-24 10:46 51°30.857 2°53.095 8.1 18 15.9 102160 86
2009-06-24 10:47 51°30.83 2°52.78 8.4 17 15.9 102160 87
2009-06-24 10:48 51°30.806 2°52.462 9.8 22 15.8 102160 86
2009-06-24 10:49 51°30.781 2°52.145 8.7 18 15.8 102170 87
2009-06-24 10:50 51°30.754 2°51.829 10.9 23 15.9 102150 88
2009-06-24 10:51 51°30.729 2°51.514 7.3 23 15.8 102150 88
2009-06-24 10:52 51°30.704 2°51.199 6.5 17 15.8 102150 87
2009-06-24 10:53 51°30.664 2°50.886 6.6 32 15.8 102150 87
2009-06-24 10:54 51°30.566 2°50.6 4 36 15.8 102160 88
2009-06-24 10:55 51°30.448 2°50.319 4.8 36 15.8 102150 87
2009-06-24 10:56 51°30.336 2°50.048 5.8 36 15.8 102150 88
2009-06-24 10:57 51°30.224 2°49.766 6.1 42 15.7 102140 87
2009-06-24 10:58 51°30.117 2°49.49 4.6 36 15.7 102150 88
2009-06-24 10:59 51°30.008 2°49.21 6.2 36 15.8 102140 88
2009-06-24 11:00 51°29.9 2°48.932 4.5 36 15.8 102140 88
2009-06-24 11:01 51°29.796 2°48.648 6.2 38 15.7 102140 88
2009-06-24 11:02 51°29.7 2°48.361 5.1 34 15.7 102140 87
2009-06-24 11:03 51°29.599 2°48.077 5.4 33 15.7 102140 87
2009-06-24 11:04 51°29.5 2°47.786 4.5 30 15.8 102130 88
2009-06-24 11:05 51°29.405 2°47.503 6.4 38 15.8 102130 87
2009-06-24 11:06 51°29.304 2°47.215 5.4 35 15.7 102130 87
2009-06-24 11:07 51°29.21 2°46.931 5.5 36 15.7 102140 88
2009-06-24 11:08 51°29.11 2°46.643 5.4 34 15.8 102130 87
2009-06-24 11:09 51°29.016 2°46.36 4.9 35 15.7 102130 88
2009-06-24 11:10 51°28.917 2°46.07 5.1 28 15.7 102120 87
2009-06-24 11:11 51°28.825 2°45.787 6.3 26 15.7 102120 87
2009-06-24 11:12 51°28.757 2°45.497 8.1 32 15.7 102130 87
2009-06-24 11:13 51°28.695 2°45.19 9.3 30 15.7 102110 87
2009-06-24 11:14 51°28.633 2°44.895 8.1 31 15.7 102120 88
2009-06-24 11:15 51°28.565 2°44.603 6.4 33 15.7 102120 87
2009-06-24 11:16 51°28.459 2°44.333 4.6 34 15.7 102120 88
2009-06-24 11:17 51°28.334 2°44.09 5.4 37 15.7 102110 87
2009-06-24 11:18 51°28.193 2°43.871 3.5 34 15.8 102110 88
2009-06-24 11:19 51°28.048 2°43.655 3.1 32 15.7 102110 87
2009-06-24 11:20 51°27.903 2°43.431 4 44 16 102110 88
2009-06-24 11:21 51°27.767 2°43.212 6.3 39 16 102110 88
2009-06-24 11:22 51°27.627 2°42.991 5.4 37 16 102110 87
2009-06-24 11:23 51°27.471 2°42.799 4.9 38 15.9 102090 87
2009-06-24 11:24 51°27.274 2°42.75 6.6 268 15.9 102090 88
2009-06-24 11:25 51°27.075 2°42.776 11 255 15.9 102080 86
2009-06-24 11:26 51°26.901 2°42.909 12.8 247 15.9 102060 87
2009-06-24 11:27 51°26.794 2°43.15 13.3 235 16 102050 87
2009-06-24 11:28 51°26.775 2°43.42 15.6 40 16.1 102030 86
2009-06-24 11:29 51°26.816 2°43.68 13.2 320 16.1 102010 86
2009-06-24 11:30 51°26.878 2°43.931 20 320 16.1 102040 86
2009-06-24 11:31 51°26.941 2°44.19 16.5 320 16.1 102040 86
2009-06-24 11:32 51°26.998 2°44.454 15.9 321 16.2 102020 86
2009-06-24 11:33 51°27.051 2°44.726 16.1 320 16.1 102030 86
2009-06-24 11:34 51°27.12 2°44.983 19.2 322 16.2 102010 85
2009-06-24 11:35 51°27.201 2°45.226 15.5 323 16.2 102020 86
2009-06-24 11:36 51°27.278 2°45.475 17.2 323 16.1 102020 85
2009-06-24 11:37 51°27.356 2°45.734 16.5 324 16.1 102010 85
2009-06-24 11:38 51°27.443 2°45.992 15.7 324 16.1 102010 86
2009-06-24 11:39 51°27.526 2°46.243 17.8 323 16.2 102030 86
2009-06-24 11:40 51°27.612 2°46.499 16.3 323 16.2 102030 86
2009-06-24 11:41 51°27.698 2°46.756 17.4 323 16.2 102010 86
2009-06-24 11:42 51°27.783 2°47.008 16.4 324 16.2 102010 86
2009-06-24 11:43 51°27.866 2°47.259 17 322 16.2 102020 85
2009-06-24 11:44 51°27.953 2°47.511 16.1 321 16.2 102030 86
2009-06-24 11:45 51°28.037 2°47.772 19.5 324 16.1 102020 86
2009-06-24 11:46 51°28.12 2°48.021 18.1 321 16.1 102010 86
2009-06-24 11:47 51°28.206 2°48.285 15.2 323 16.1 102000 85
2009-06-24 11:48 51°28.292 2°48.544 17.8 322 16.1 102010 85
2009-06-24 11:49 51°28.379 2°48.812 19.7 322 16.1 102000 86
2009-06-24 11:50 51°28.464 2°49.076 17.7 322 16.1 102000 86
2009-06-24 11:51 51°28.549 2°49.337 16.5 323 16.1 102000 85
2009-06-24 11:52 51°28.631 2°49.595 18.5 321 16.1 101990 85
2009-06-24 11:53 51°28.716 2°49.859 18.5 321 16.1 102020 85
2009-06-24 11:54 51°28.802 2°50.123 17.2 322 16.1 101990 86
2009-06-24 11:55 51°28.888 2°50.388 15.9 321 16.1 102000 86
2009-06-24 11:56 51°28.976 2°50.659 16 322 16.1 102020 86
2009-06-24 11:57 51°29.061 2°50.924 15.7 322 16.1 102010 86
2009-06-24 11:58 51°29.147 2°51.195 14.9 324 16.2 102020 86
2009-06-24 11:59 51°29.235 2°51.469 17.2 324 16.1 102000 86
2009-06-24 12:00 51°29.324 2°51.742 16.1 323 16.1 102010 85
2009-06-24 12:01 51°29.413 2°52.012 17.1 326 16.2 102010 87
2009-06-24 12:02 51°29.499 2°52.278 16.3 322 16.2 102000 85
2009-06-24 12:03 51°29.59 2°52.557 17.2 323 16.2 102000 85
2009-06-24 12:04 51°29.678 2°52.83 14.8 323 16.2 101990 86
2009-06-24 12:05 51°29.766 2°53.102 20.2 321 16.2 101980 85
2009-06-24 12:06 51°29.857 2°53.379 19.3 323 16.2 101990 85
2009-06-24 12:07 51°29.945 2°53.649 14.7 324 16.2 101970 86
2009-06-24 12:08 51°30.04 2°53.927 15.4 321 16.2 101980 85
2009-06-24 12:09 51°30.129 2°54.198 15.9 323 16.2 101980 84
2009-06-24 12:10 51°30.212 2°54.49 17.8 319 16.2 101980 85
2009-06-24 12:11 51°30.286 2°54.782 19 319 16.2 101990 85
2009-06-24 12:12 51°30.36 2°55.069 17.1 320 16.2 101980 84
2009-06-24 12:13 51°30.435 2°55.356 19 319 16.2 101990 85
2009-06-24 12:14 51°30.51 2°55.643 15.9 323 16.2 101960 84
2009-06-24 12:15 51°30.588 2°55.933 15.4 321 16.3 101990 85
2009-06-24 12:16 51°30.659 2°56.216 19.4 319 16.3 101990 85
2009-06-24 12:17 51°30.733 2°56.497 17.1 323 16.3 102000 85
2009-06-24 12:18 51°30.809 2°56.783 17.9 322 16.2 101980 84
2009-06-24 12:19 51°30.885 2°57.071 17.7 320 16.2 101980 84
2009-06-24 12:20 51°30.962 2°57.358 14.5 321 16.3 101980 85
2009-06-24 12:21 51°31.039 2°57.645 18.7 321 16.3 101980 84
2009-06-24 12:22 51°31.118 2°57.938 13.2 322 16.3 101970 84
2009-06-24 12:23 51°31.195 2°58.222 19 319 16.4 101970 85
2009-06-24 12:24 51°31.272 2°58.508 18.3 318 16.3 101990 85
2009-06-24 12:25 51°31.35 2°58.803 15.9 320 16.3 101980 85
2009-06-24 12:26 51°31.43 2°59.092 16.7 320 16.3 101970 84
2009-06-24 12:27 51°31.505 2°59.376 17.2 323 16.3 101960 84
2009-06-24 12:28 51°31.583 2°59.67 17.4 320 16.3 101980 85
2009-06-24 12:29 51°31.66 2°59.955 15.3 321 16.3 101980 85
2009-06-24 12:30 51°31.737 3°0.248 13.7 320 16.3 101980 85
2009-06-24 12:31 51°31.813 3°0.54 17.9 321 16.3 101960 84
2009-06-24 12:32 51°31.888 3°0.825 18 323 16.3 101960 85
2009-06-24 12:33 51°31.964 3°1.112 16.7 321 16.3 101940 84
2009-06-24 12:34 51°32.039 3°1.403 17.2 320 16.3 101950 85
2009-06-24 12:35 51°32.114 3°1.693 16.5 321 16.3 101970 85
2009-06-24 12:36 51°32.189 3°1.978 15.7 320 16.4 101960 85
2009-06-24 12:37 51°32.265 3°2.274 18.5 320 16.3 101950 85
2009-06-24 12:38 51°32.269 3°2.579 14 236 16.3 101940 85
2009-06-24 12:39 51°32.202 3°2.884 12.8 240 16.3 101950 84
2009-06-24 12:40 51°32.072 3°3.134 11.9 254 16.3 101970 84
2009-06-24 12:41 51°31.904 3°3.295 7.1 262 16.4 101990 84
2009-06-24 12:42 51°31.725 3°3.294 7.1 37 16.4 102020 85
2009-06-24 12:43 51°31.569 3°3.177 3.8 38 16.3 102020 84
2009-06-24 12:44 51°31.449 3°2.977 6.4 35 16.4 102020 84
2009-06-24 12:45 51°31.356 3°2.76 7.1 33 16.4 102020 84
2009-06-24 12:46 51°31.267 3°2.528 7.4 31 16.3 102020 84
2009-06-24 12:47 51°31.17 3°2.306 6.7 44 16.4 102020 85
2009-06-24 12:48 51°31.065 3°2.093 5.8 39 16.3 102010 86
2009-06-24 12:49 51°30.961 3°1.883 6.9 38 16.3 102010 84
2009-06-24 12:50 51°30.858 3°1.673 7.7 40 16.2 102010 86
2009-06-24 12:51 51°30.757 3°1.457 9.8 37 16.2 102000 85
2009-06-24 12:52 51°30.662 3°1.245 6 40 16.2 102000 85
2009-06-24 12:53 51°30.558 3°1.032 6 42 16.2 102000 85
2009-06-24 12:54 51°30.46 3°0.822 6.5 43 16.2 102000 86
2009-06-24 12:55 51°30.362 3°0.607 7.9 41 16.2 102000 85
2009-06-24 12:56 51°30.261 3°0.384 8.2 42 16.2 101990 86
2009-06-24 12:57 51°30.159 3°0.168 6.3 40 16.2 102000 86
2009-06-24 12:58 51°30.06 2°59.961 5.9 35 16.2 101990 86
2009-06-24 12:59 51°29.958 2°59.748 6.8 41 16.2 102000 86
2009-06-24 13:00 51°29.855 2°59.53 6.7 38 16.2 101990 86
2009-06-24 13:01 51°29.759 2°59.311 6.3 40 16.2 102000 86
2009-06-24 13:02 51°29.662 2°59.084 6.2 38 16.2 101990 86
2009-06-24 13:03 51°29.573 2°58.856 7.7 35 16.2 101990 86
2009-06-24 13:04 51°29.475 2°58.631 5.7 28 16.2 101990 87
2009-06-24 13:05 51°29.383 2°58.402 8.3 34 16.2 101990 86
2009-06-24 13:06 51°29.291 2°58.174 5.4 33 16.2 101990 86
2009-06-24 13:07 51°29.208 2°57.946 6 37 16.3 101980 87
2009-06-24 13:08 51°29.118 2°57.715 6.1 39 16.2 101990 86
2009-06-24 13:09 51°29.032 2°57.485 6.6 32 16.2 101990 86
2009-06-24 13:10 51°28.95 2°57.259 6.4 37 16.2 101990 86
2009-06-24 13:11 51°28.862 2°57.03 7.3 36 16.3 101990 86
2009-06-24 13:12 51°28.776 2°56.804 7 37 16.2 101990 86
2009-06-24 13:13 51°28.692 2°56.572 6.5 32 16.2 101990 86
2009-06-24 13:14 51°28.606 2°56.337 6 37 16.2 101990 86
2009-06-24 13:15 51°28.523 2°56.104 6.4 39 16.3 101990 87
2009-06-24 13:16 51°28.441 2°55.863 4.9 36 16.2 101990 86
2009-06-24 13:17 51°28.357 2°55.626 6.7 38 16.2 101980 86
2009-06-24 13:18 51°28.272 2°55.388 6.2 34 16.2 101980 85
2009-06-24 13:19 51°28.185 2°55.154 6.3 37 16.2 101990 87
2009-06-24 13:20 51°28.1 2°54.918 6.4 45 16.2 101990 86
2009-06-24 13:21 51°28.016 2°54.691 6.9 38 16.2 101980 86
2009-06-24 13:22 51°27.931 2°54.456 6.4 41 16.2 101980 86
2009-06-24 13:23 51°27.849 2°54.231 7 35 16.2 101980 86
2009-06-24 13:24 51°27.762 2°53.996 6.3 37 16.2 101970 87
2009-06-24 13:25 51°27.679 2°53.759 7 42 16.2 101980 87
2009-06-24 13:26 51°27.593 2°53.524 5.7 34 16.1 101980 86
2009-06-24 13:27 51°27.508 2°53.292 8.6 39 16.2 101970 86
2009-06-24 13:28 51°27.426 2°53.066 7.2 39 16.2 101980 86
2009-06-24 13:29 51°27.339 2°52.833 9 36 16.2 101970 86
2009-06-24 13:30 51°27.257 2°52.603 6.3 44 16.2 101970 86
2009-06-24 13:31 51°27.17 2°52.382 8.9 44 16.2 101970 86
2009-06-24 13:32 51°27.086 2°52.16 6.1 40 16.2 101970 86
2009-06-24 13:33 51°27.004 2°51.937 8.2 38 16.2 101970 86
2009-06-24 13:34 51°26.921 2°51.715 6.5 34 16.2 101970 86
2009-06-24 13:35 51°26.838 2°51.493 5.8 34 16.3 101970 86
2009-06-24 13:36 51°26.752 2°51.263 8 34 16.2 101960 85
2009-06-24 13:37 51°26.664 2°51.05 6.5 38 16.2 101960 85
2009-06-24 13:38 51°26.569 2°50.827 6.4 35 16.3 101960 86
2009-06-24 13:39 51°26.481 2°50.609 5.9 42 16.3 101970 86
2009-06-24 13:40 51°26.392 2°50.395 6.7 37 16.3 101960 85
2009-06-24 13:41 51°26.3 2°50.18 6.5 31 16.3 101960 86
2009-06-24 13:42 51°26.213 2°49.964 6 43 16.3 101960 85
2009-06-24 13:43 51°26.124 2°49.752 5.3 34 16.3 101960 84
2009-06-24 13:44 51°26.036 2°49.538 7.1 35 16.3 101960 84
2009-06-24 13:45 51°25.948 2°49.325 6 33 16.3 101960 85
2009-06-24 13:46 51°25.861 2°49.113 7.9 41 16.4 101950 84
2009-06-24 13:47 51°25.776 2°48.899 6.4 33 16.3 101950 84
2009-06-24 13:48 51°25.692 2°48.688 7.5 36 16.3 101940 85
2009-06-24 13:49 51°25.606 2°48.471 7 34 16.4 101940 86
2009-06-24 13:50 51°25.525 2°48.256 6 32 16.4 101950 85
2009-06-24 13:51 51°25.441 2°48.049 8 38 16.3 101950 84
2009-06-24 13:52 51°25.359 2°47.834 7 40 16.3 101940 86
2009-06-24 13:53 51°25.28 2°47.624 7.5 38 16.3 101950 85
2009-06-24 13:54 51°25.2 2°47.412 7.5 41 16.3 101940 85
2009-06-24 13:55 51°25.114 2°47.199 6.7 35 16.3 101940 85
2009-06-24 13:56 51°25.025 2°46.985 6.8 40 16.3 101940 85
2009-06-24 13:57 51°24.936 2°46.777 8.3 37 16.3 101940 85
2009-06-24 13:58 51°24.849 2°46.561 8.1 41 16.3 101930 86
2009-06-24 13:59 51°24.761 2°46.351 7.8 39 16.3 101930 86
2009-06-24 14:00 51°24.674 2°46.135 7.8 36 16.2 101940 85
2009-06-24 14:01 51°24.587 2°45.914 8.3 40 16.3 101930 86
2009-06-24 14:02 51°24.503 2°45.705 7.6 38 16.3 101920 85
2009-06-24 14:03 51°24.372 2°45.573 5.7 37 16.2 101930 85
2009-06-24 14:04 51°24.211 2°45.587 6.7 38 16.4 101910 85
2009-06-24 14:05 51°24.04 2°45.651 6.2 266 16.3 101900 85
2009-06-24 14:06 51°23.875 2°45.7 7 38 16.3 101910 86
2009-06-24 14:07 51°23.703 2°45.754 5.4 267 16.4 101910 86
2009-06-24 14:08 51°23.534 2°45.813 7.1 32 16.4 101910 85
2009-06-24 14:09 51°23.363 2°45.872 8.3 38 16.4 101910 85
2009-06-24 14:10 51°23.191 2°45.927 8.2 269 16.4 101900 86
2009-06-24 14:11 51°23.023 2°45.986 5.4 266 16.4 101910 85
2009-06-24 14:12 51°22.856 2°46.069 9.6 257 16.4 101890 86
2009-06-24 14:13 51°22.713 2°46.25 14.1 253 16.4 101880 85
2009-06-24 14:14 51°22.588 2°46.468 11.6 251 16.5 101860 86
2009-06-24 14:15 51°22.464 2°46.697 14.5 250 16.5 101860 85
2009-06-24 14:16 51°22.337 2°46.913 9.5 251 16.6 101880 85
2009-06-24 14:17 51°22.202 2°47.109 12.3 255 16.6 101870 85
2009-06-24 14:18 51°22.058 2°47.301 9.8 258 16.7 101870 84
2009-06-24 14:19 51°21.913 2°47.468 11.3 262 16.7 101870 85
2009-06-24 14:20 51°21.755 2°47.625 10.3 259 16.8 101870 84
2009-06-24 14:21 51°21.602 2°47.783 10.6 260 16.8 101880 84
2009-06-24 14:22 51°21.445 2°47.935 10.5 259 16.8 101870 85
2009-06-24 14:23 51°21.285 2°48.101 6.9 260 16.8 101860 85
2009-06-24 14:24 51°21.126 2°48.259 10.8 254 16.8 101840 84
2009-06-24 14:25 51°20.969 2°48.416 10.6 257 16.9 101860 84
2009-06-24 14:26 51°20.805 2°48.578 11.5 258 16.9 101860 84
2009-06-24 14:27 51°20.647 2°48.734 8.2 261 16.9 101860 83
2009-06-24 14:28 51°20.498 2°48.9 14 257 17 101850 84
2009-06-24 14:29 51°20.351 2°49.062 13.2 260 17 101860 84
2009-06-24 14:30 51°20.201 2°49.231 13.5 257 16.9 101850 84
2009-06-24 14:31 51°20.055 2°49.394 11.4 255 17 101850 84
2009-06-24 14:32 51°19.9 2°49.562 13.3 256 17 101850 84
2009-06-24 14:33 51°19.748 2°49.73 13.1 259 17 101830 84
2009-06-24 14:34 51°19.592 2°49.893 15.1 257 17 101840 84
2009-06-24 14:35 51°19.439 2°50.066 12 259 17 101840 84
2009-06-24 14:36 51°19.285 2°50.228 12.4 256 17 101840 83
2009-06-24 14:37 51°19.127 2°50.395 13.9 256 17 101820 83
2009-06-24 14:38 51°18.974 2°50.554 11.7 257 17.1 101840 84
2009-06-24 14:39 51°18.813 2°50.713 11.9 262 17.1 101830 83
2009-06-24 14:40 51°18.662 2°50.877 13.4 251 17.1 101840 83
2009-06-24 14:41 51°18.511 2°51.053 11.2 252 17.1 101820 84
2009-06-24 14:42 51°18.363 2°51.222 13.3 254 17.2 101830 83
2009-06-24 14:43 51°18.216 2°51.394 12.1 257 17.2 101820 84
2009-06-24 14:44 51°18.059 2°51.56 11.8 259 17.2 101830 83
2009-06-24 14:45 51°17.905 2°51.714 11.1 261 17.2 101820 83
2009-06-24 14:46 51°17.748 2°51.858 12.1 258 17.2 101820 83
2009-06-24 14:47 51°17.593 2°51.994 5.7 265 17.2 101820 82
2009-06-24 14:48 51°17.431 2°52.133 12.8 259 17.2 101820 82
2009-06-24 14:49 51°17.272 2°52.265 10.2 261 17.3 101800 83
2009-06-24 14:50 51°17.114 2°52.403 13 259 17.3 101800 83
2009-06-24 14:51 51°16.956 2°52.54 10.3 260 17.3 101820 84
2009-06-24 14:52 51°16.799 2°52.681 10.2 261 17.4 101820 83
2009-06-24 14:53 51°16.64 2°52.825 11.7 261 17.4 101810 83
2009-06-24 14:54 51°16.486 2°52.966 10.1 257 17.4 101800 84
2009-06-24 14:55 51°16.322 2°53.108 11.9 257 17.4 101800 82
2009-06-24 14:56 51°16.165 2°53.256 10.4 261 17.4 101800 83
2009-06-24 14:57 51°16.006 2°53.393 10.3 261 17.4 101800 83
2009-06-24 14:58 51°15.84 2°53.529 10.3 256 17.5 101810 82
2009-06-24 14:59 51°15.679 2°53.67 14 257 17.5 101800 84
2009-06-24 15:00 51°15.515 2°53.807 15.7 261 17.5 101800 82
2009-06-24 15:01 51°15.35 2°53.944 12.9 257 17.5 101790 82
2009-06-24 15:02 51°15.187 2°54.075 11.7 259 17.5 101790 82
2009-06-24 15:03 51°15.018 2°54.209 9.8 262 17.5 101800 83
2009-06-24 15:04 51°14.858 2°54.347 9.6 262 17.5 101790 83
2009-06-24 15:05 51°14.703 2°54.489 14.3 258 17.5 101780 82
2009-06-24 15:06 51°14.547 2°54.678 12.7 250 17.6 101790 82
2009-06-24 15:07 51°14.415 2°54.906 12.2 249 17.6 101770 83
2009-06-24 15:08 51°14.309 2°55.147 11.4 239 17.7 101760 82
2009-06-24 15:09 51°14.199 2°55.337 10 244 17.7 101780 82
2009-06-24 15:10 51°14.093 2°55.434 7.3 242 17.7 101810 82
2009-06-24 15:11 51°13.995 2°55.502 8 264 17.8 101830 82
2009-06-24 15:12 51°13.918 2°55.557 5.6 270 17.9 101820 82
2009-06-24 15:13 51°13.854 2°55.606 3.4 261 18 101820 80
2009-06-24 15:14 51°13.776 2°55.683 6.2 254 18.1 101810 81
2009-06-24 15:15 51°13.715 2°55.787 4.8 33 18.2 101810 80
2009-06-24 15:16 51°13.676 2°55.875 9.6 250 18.4 101810 79
2009-06-24 15:17 51°13.663 2°55.944 10.9 241 18.5 101810 78
2009-06-24 15:18 51°13.66 2°55.956 3.7 238 18.6 101800 76